GMMEGMMN

Guest
Details From GMME - SALE
To GMMN - Casablanca Mohammed V Intl
Flight Number -
Tags decoded
Created
Modified
Stats Distance 59 nm / 109 km
Max Altitude 0 ft / 0 m
Waypoints 2
Social Downloads 2
Likes 0
Share VATSIM

Download

Looking for another format? Having issues loading an existing format? Contact us
Advertisement - Login to hide

Notes

Requested: GMME GMMN

Route

GMME GMMN

ID Type Via Altitude Latitude Longitude Leg Dist Tot Dist Heading (true) Name
O GMME APT - 0 ft / 0 m 34.05147˚ -6.75152˚ - 0 nm - SALE
O GMMN APT - 0 ft / 0 m 33.36747˚ -7.58996˚ 58 nm 58 nm 226° / 225° Casablanca Mohammed V Intl

Altitude Profile

Advertisement - Login to hide

GMME

Details ICAO GMME (RBA)
Name SALE
Region Morocco
Timezone Africa/Casablanca (UTC+0.0)
Stats Elevation 276 ft / 84 m (AMSL)
Location 34.051468° -6.751519°
Runways 1
Magnetic Variation 1.550° W

METAR

GMME 141330Z 35007KT CAVOK 17/08 Q1025 NOSIG

Decode

TAF

TAF TAF GMME 141100Z 1412/1518 36010KT 9999 FEW016 TEMPO 1420/1512 14008KT PROB40 TEMPO 1512/1518 24011KT 6000 RA BKN013 SCT020 BKN080

Decode

Departure Runways

ID Width Length Bearing (true) Bearing (mag) Surface Threshold Offset Overrun Length
04 148 ft / 45 m 11,503 ft / 3,506 m 31.24° 32.79° Asphalt 0 ft / 0 m 197 ft / 60 m
22 148 ft / 45 m 11,503 ft / 3,506 m 211.25° 212.80° Asphalt 0 ft / 0 m 197 ft / 60 m

GMMN

Details ICAO GMMN (CMN)
Name Casablanca Mohammed V Intl
Region Morocco
Timezone Africa/Casablanca (UTC+0.0)
Stats Elevation 656 ft / 200 m (AMSL)
Location 33.367466° -7.589964°
Runways 2
Magnetic Variation 1.817° W

METAR

GMMN 141330Z 04006KT 330V100 CAVOK 17/07 Q1026 NOSIG

Decode

TAF

TAF TAF GMMN 141100Z 1412/1518 04012KT CAVOK BECMG 1420/1422 34004KT PROB30 TEMPO 1500/1506 3000 BR SCT010

Decode

Destination Runways

ID Width Length Bearing (true) Bearing (mag) Surface Threshold Offset Overrun Length
17L 148 ft / 45 m 12,224 ft / 3,726 m 164.03° 165.85° Asphalt 0 ft / 0 m 295 ft / 90 m
17R 148 ft / 45 m 12,196 ft / 3,717 m 164.03° 165.85° Asphalt 0 ft / 0 m 197 ft / 60 m
35L 148 ft / 45 m 12,196 ft / 3,717 m 344.04° 345.86° Asphalt 0 ft / 0 m 180 ft / 55 m
35R 148 ft / 45 m 12,224 ft / 3,726 m 344.04° 345.86° Asphalt 0 ft / 0 m 995 ft / 303 m

Approach Navaids

Runway Type Ident Frequency Range Bearing (true) Bearing (mag) Slope Elevation
35L Localiser INL 110.70 MHz 18 nm / 33 km 344.03° 345.85° - 656 ft / 200 m (AMSL)
35L Glidescope INL 110.70 MHz 10 nm / 19 km 344.03° 345.85° 3.00° 656 ft / 200 m (AMSL)
35L DME INL 110.70 MHz 18 nm / 33 km - - - 656 ft / 200 m (AMSL)
35R Localiser INR 109.90 MHz 18 nm / 33 km 344.04° 345.85° - 656 ft / 200 m (AMSL)
35R Glidescope INR 109.90 MHz 10 nm / 19 km 344.04° 345.85° 2.70° 656 ft / 200 m (AMSL)

Popular Alternatives